Location: *
(44.9308°N, 123.0197°W)
Time: 03:14:26
(UTC+00:00)

Cosmos 1417 Rocket - Pass Details

Date: 09 April 2020
Orbit: 951 x 999 km, 83.0° (Epoch: 24 May)

Event Time Altitude Azimuth Distance (km) Brightness Sun altitude
Rises 13:02:50 0° 351° (N) 3,646 7.6 -6.7°
Reaches altitude 10° 13:05:20 10° 350° (N) 2,692 6.9 -6.2°
Maximum altitude 13:11:30 84° 264° (W) 964 4.5 -5.2°
Drops below altitude 10° 13:17:36 10° 177° (S) 2,671 6.7 -4.2°
Sets 13:20:05 0° 177° (S) 3,615 7.4 -3.7°
